DECAYED

COSMOS 2251 DEB, 35970 (Decayed)

Orbit data source: Space-Track

COSMOS 2251 DEB, 35970 was space debris in LEO originally from a launch on Wed, 16 Jun 1993 UTC launched from the Plesetsk Missile And Space Complex (PKMTR). The debris from Iridium 33, an American commercial communications satellite, has been tracked extensively since its accidental collision with the defunct Russian satellite Cosmos 2251 in 2009. This event, occurring at high speed in low Earth orbit (LEO), generated thousands of pieces of space debris, significantly increasing the risk of further collisions. The Iridium 33 debris cloud has impacted space traffic management and orbital debris mitigation strategies, making it a subject of ongoing study in space situational awareness.

Not visible in the next 10 days
Identifier
35970, 1993-036AVL
Orbit
Decayed
Country
Flag of CISCIS
Related business
Manufacturer
Unknown
Mission
Decayed spacecraft
Bus & Motor
Unknown
Mass
Unknown
Launch date (UTC)
1993-06-16 (33 years ago)
Launch vehicle
Unknown
Launch site
Plesetsk Missile And Space Complex (PKMTR)
Object type
Payload
Rocket body
Debris
Shape & HBR
Unknown shape, 0.1 m
Radar Cross Section
Small (<0.1 m²)

Expand to show TLE details & history
Last TLE update: 1 year ago

TLE from 1 year ago
0 COSMOS 2251 DEB
1 35970U 93036AVL 25215.89311506  .00553838  00000-0  47478-2 0  9997
2 35970  74.0005  75.1183 0021638 187.6703 172.4191 15.67388863849471
Epoch: 2025-08-03T21:26Z
TLE epoch observation values (Epoch: 2025-08-03T21:26:05.141Z)
Latitude
-0.00007°
Longitude
160.88846°
Altitude
383.613 km
Speed
7.672 km/s
True Right ascension
05h 00m 28s
True Declination
0° 00' 00"
Sunlit
Object was in daylight at epoch
Visualization orbit readout
Latitude
Unknown
Longitude
Unknown
Altitude
Unknown
Speed
Unknown
Apparent Right ascension
Unknown
Apparent Declination
Unknown
Sunlit
N/A
Visualization observer readout
Local Sidereal Time
15:01:19
Azimuth
Unknown
Elevation
Unknown
Doppler factor
Unknown
Orbital elements
Apogee altitude
378.449 km
Perigee altitude
349.273 km
Semi-major axis
6,741.998 km
Eccentricity
0.00216
Inclination
74.0005°
RAAN
75.1183°
Arg. of periapsis
187.6703°
True anomaly
172.45172°
Mean anomaly
172.4191°
Eccentric anomaly
172.43542°
Mean motion
3.92067 °/min
Orbital period
91.82 mins
BSTAR
0.0047478

Documentation

Showing up to 5 results
|